Location: Oregon Trail
(41.1872°N, 102.0741°W)
Time: 04:37:57
(UTC+00:00)

COSMO-SKYMED 1 - Pass Details

Date: 19 November 2019
Orbit: 621 x 623 km, 97.9° (Epoch: 08 December)

Event Time Altitude Azimuth Distance (km) Brightness Sun altitude
Rises 12:15:07 0° 174° (S) 2,889 6.2 -16.1°
Reaches altitude 10° 12:17:19 10° 178° (S) 1,987 5.3 -15.7°
Maximum altitude 12:21:36 61° 259° (W) 708 2.5 -14.9°
Drops below altitude 10° 12:25:55 10° 340° (NNW) 2,001 4.9 -14.1°
Enters shadow 12:27:44 - 344° (NNW) 2,747 5.6 -13.7°
